Weather History for Alma, GA

Change the Weather History Date:

Sunday, May 18, 2014

  Actual Average Record
Temperature  
Mean Temperature 70 °F 74 °F  
Max Temperature 85 °F 86 °F 95 °F (1960)
Min Temperature 54 °F 62 °F 45 °F (2011)
Degree Days  
Heating Degree Days 0 0  
Month to date heating degree days 3 3  
Since 1 July heating degree days 1807 1656  
Cooling Degree Days 5 9  
Month to date cooling degree days 126 131  
Year to date cooling degree days 228 285  
Growing Degree Days 19 (Base 50)    
Moisture  
Dew Point 54 °F    
Average Humidity 61    
Maximum Humidity 89    
Minimum Humidity 32    
Precipitation  
Precipitation T in 0.07 in 0.85 in (2003)
Month to date precipitation 2.10 1.20  
Year to date precipitation 16.50 16.82  
Snow  
Snow 0.00 in 0.00 in 0.00 in ()
Month to date snowfall 0.0 0.0  
Since 1 July snowfall T 0.1  
Snow Depth 0.00 in    
Sea Level Pressure  
Sea Level Pressure 30.17 in    
Wind  
Wind Speed 4 mph (West)    
Max Wind Speed 14 mph    
Max Gust Speed 19 mph    
Visibility 10 miles    
Events      
T = Trace of Precipitation, MM = Missing Value Source: NWS Daily Summary

Daily Weather History Graph

Daily Weather History Graph

Search for Another Location

Airport:

Trip Planner

Search our weather history database for the weather conditions in past years. The results will help you decide how hot, cold, wet, or windy it might be!

Date:

Astronomy

May. 18, 2014 Rise Set
Actual Time 6:31 AM EDT 8:21 PM EDT
Civil Twilight 6:04 AM EDT 8:48 PM EDT
Nautical Twilight 5:32 AM EDT 9:20 PM EDT
Astronomical Twilight 4:58 AM EDT 9:55 PM EDT
Moon No Moon Rise 10:16 AM EDT (5/18)
Length of Visible Light 14h 43m
Length of Day
13h 49m
Waning Gibbous, 81% of the Moon is Illuminated
May 18
Waning Gibbous
May 21
Last Quarter
May 28
New
Jun 5
First Quarter
Jun 13
Full

Hourly Weather History & Observations

Time (EDT) Temp. Heat Index Dew Point Humidity Pressure Visibility Wind Dir Wind Speed Gust Speed Precip Events Conditions
12:53 AM 60.1 °F - 50.0 °F 69% 30.19 in 10.0 mi SSE 3.5 mph - N/A   Clear
1:53 AM 55.9 °F - 50.0 °F 80% 30.18 in 10.0 mi Calm Calm - N/A   Clear
2:53 AM 54.0 °F - 50.0 °F 86% 30.17 in 10.0 mi Calm Calm - N/A   Partly Cloudy
3:53 AM 54.0 °F - 50.0 °F 86% 30.17 in 10.0 mi Calm Calm - N/A   Clear
4:53 AM 57.0 °F - 50.0 °F 77% 30.18 in 10.0 mi WSW 3.5 mph - N/A   Clear
5:53 AM 55.9 °F - 50.0 °F 80% 30.18 in 10.0 mi Calm Calm - N/A   Clear
6:53 AM 57.0 °F - 50.0 °F 77% 30.19 in 10.0 mi SW 3.5 mph - N/A   Clear
7:53 AM 61.0 °F - 51.1 °F 70% 30.19 in 10.0 mi WSW 4.6 mph - N/A   Clear
8:53 AM 66.0 °F - 52.0 °F 60% 30.19 in 10.0 mi SSW 6.9 mph - N/A   Clear
9:53 AM 71.1 °F - 55.0 °F 57% 30.20 in 10.0 mi WSW 5.8 mph - N/A   Clear
10:53 AM 75.9 °F - 55.9 °F 50% 30.20 in 10.0 mi Variable 4.6 mph - N/A   Clear
11:53 AM 79.0 °F - 55.0 °F 44% 30.19 in 10.0 mi West 9.2 mph - N/A   Clear
12:53 PM 80.1 °F 80.1 °F 55.0 °F 42% 30.18 in 10.0 mi WNW 6.9 mph - N/A   Clear
1:53 PM 81.0 °F 80.8 °F 55.9 °F 42% 30.16 in 10.0 mi WSW 5.8 mph - N/A   Clear
2:53 PM 82.0 °F 81.4 °F 55.0 °F 39% 30.15 in 10.0 mi NNW 5.8 mph - N/A   Scattered Clouds
3:53 PM 82.0 °F 81.2 °F 53.1 °F 37% 30.14 in 10.0 mi Variable 4.6 mph - N/A   Clear
4:53 PM 84.0 °F - 52.0 °F 33% 30.12 in 10.0 mi Calm Calm - N/A   Mostly Cloudy
5:53 PM 82.9 °F - 52.0 °F 34% 30.12 in 10.0 mi WNW 5.8 mph - N/A   Partly Cloudy
6:53 PM 81.0 °F 80.5 °F 54.0 °F 39% 30.12 in 10.0 mi NNW 5.8 mph - N/A   Clear
7:53 PM 78.1 °F - 59.0 °F 52% 30.12 in 10.0 mi Calm Calm - N/A   Clear
8:53 PM 70.0 °F - 60.1 °F 71% 30.13 in 10.0 mi Calm Calm - N/A   Clear
9:53 PM 72.0 °F - 59.0 °F 64% 30.16 in 10.0 mi NNE 5.8 mph - N/A   Mostly Cloudy
10:53 PM 69.1 °F - 57.9 °F 68% 30.17 in 10.0 mi Variable 4.6 mph - N/A   Mostly Cloudy
11:53 PM 64.9 °F - 57.9 °F 78% 30.17 in 10.0 mi Calm Calm - 0.00 in   Clear